Regional Weather Roundup
Issued by NWS

Home | Current Version | Previous Version | Text Only | Print | Product List | Glossary Off
Versions: 1 2 3 4 5 6 7 8 9 10 11 12 13 14 15 16 17 18 19 20 21 22 23 24 25 26 27 28 29 30 31 32 33 34 35 36 37 38 39 40 41 42 43 44 45 46 47 48 49 50

000
ASUS43 KFSD 191002
RWRSD

WEATHER ROUNDUP FOR SOUTH DAKOTA
NATIONAL WEATHER SERVICE SIOUX FALLS SD
500 AM CDT SUN APR 19 2015

NOTE: "FAIR" INDICATES FEW OR NO CLOUDS BELOW 12,000 FEET WITH NO
SIGNIFICANT WEATHER AND/OR OBSTRUCTIONS TO VISIBILITY.


SDZ001>005-009-010-012>017-191100-
NORTHWEST AND NORTH CENTRAL SOUTH DAKOTA

CITY           SKY/WX    TMP DP  RH WIND       PRES   REMARKS
BUFFALO          N/A     35  23  61 NW23      29.97S WCI  23
FAITH            N/A     38  31  76 NW14      29.98R
MOBRIDGE       CLOUDY    45  40  82 NW20G26   29.87R
$$

SDZ012>016-024>037-041>051-057-063-072>074-191100-
SOUTHWEST AND SOUTH CENTRAL SOUTH DAKOTA

CITY           SKY/WX    TMP DP  RH WIND       PRES   REMARKS
RAPID CTY ARPT PTCLDY    38  28  67 NW18      30.04R
PIERRE         CLOUDY    45  39  79 N23       29.88R
CUSTER         CLEAR     32  22  66 N8        30.04R WCI  25
ELLSWORTH AFB  PTCLDY    38  29  69 NW16      30.03R
PHILIP         MOCLDY    45  37  73 NW18      29.97R
PINE RIDGE     CLOUDY    43  33  68 NW13      30.03R
WINNER         LGT RAIN  49  44  83 NW20      29.88R
$$

SDZ004>011-016>023-039-040-191100-
NORTHEAST SOUTH DAKOTA

CITY           SKY/WX    TMP DP  RH WIND       PRES   REMARKS
ABERDEEN       LGT RAIN  49  46  90 NW15      29.78R
WATERTOWN      CLOUDY    49  48  97 NW16      29.70R
BROOKINGS      CLOUDY    55  54  94 W12       29.71S
SISSETON         N/A     48  48 100 N9        29.70F
$$

SDZ017-020-022-023-036>040-048>070-191100-
SOUTHEAST SOUTH DAKOTA

CITY           SKY/WX    TMP DP  RH WIND       PRES   REMARKS
SIOUX FALLS    CLOUDY    56  54  93 W12       29.72S
HURON          CLOUDY    49  47  93 NW20      29.77R
MITCHELL       CLOUDY    50  48  93 NW17G31   29.78R
YANKTON        CLOUDY    52  48  87 NW21G28   29.75R
$$

ABBREVIATIONS USED IN REMARKS
   TC - TEMPERATURE IN CELSIUS
  WCI - WIND CHILL INDEX
   HX - HEAT INDEX
  VSB - VISIBILITY



USA.gov is the U.S. government's official web portal to all federal, state and local government web resources and services.